Tracking 35275 objects as of 9-Sep-2026
HD Live streaming from Space Station
objects crossing your sky now

STARLINK-33651

Track STARLINK-33651 now!
10-day predictions
STARLINK-33651 is classified as:


NORAD ID: 63588
Int'l Code: 2025-076V
Launch date: April 14, 2025
Source: United States (US)
Launch site: AIR FORCE EASTERN TEST RANGE (AFETR)
Your satellite tracking list
Your tracking list is empty




NASA's NSSDC Master Catalog

Two Line Element Set (TLE):
1 63588U 25076V   26251.40153694  .00017027  00000-0  62643-3 0  9999
2 63588  43.0008   9.8419 0001808 268.7231  91.3414 15.27601090 79777
Source of the keplerian elements: AFSPC